Location: Fort Wayne
(41.1310°N, 85.1290°W)
Time: 23:43:24
(UTC-04:00)

Amateur Radio Satellites - All Passes

Search period start: 24 September 2016 23:13
Search period end: 25 September 2016 23:13
Location: Fort Wayne, 41.1310°N, 85.1290°W

Satellite Date Start Highest point End Downlink Frequencies (MHz)
Time Altitude Azimuth
ESTCUBE 1 24 Sep 23:15:58 23:19:13 20° 65° (ENE) 23:22:29 437.505/2401.250
Cosmos 2499 24 Sep 23:31:04 23:35:04 15° 281° (W) 23:39:11 435.465 / 435.565
VELOX 1 24 Sep 23:31:35 23:34:01 15° 63° (ENE) 23:36:27 145.980
HUMSAT D 24 Sep 23:32:54 23:36:46 43° 261° (W) 23:40:42 437.325/437.525
ANTELSAT 24 Sep 23:34:25 23:38:34 40° 98° (E) 23:42:47 437.575/2403.000
DX 1 24 Sep 23:37:28 23:38:11 10° 60° (ENE) 23:38:53 434.975-435.025
PRISM 24 Sep 23:38:56 23:42:08 22° 293° (WNW) 23:45:19 437.425
CUBEBUG 1 24 Sep 23:43:53 23:47:25 24° 67° (ENE) 23:50:58 437.445
M-CUBED/EXP-1 PRIME 24 Sep 23:48:02 23:51:28 25° 65° (ENE) 23:54:42 437.505
TIGRISAT 24 Sep 23:55:50 00:00:12 67° 102° (ESE) 00:04:37 435.000
DELFI C3 25 Sep 00:01:18 00:02:05 10° 270° (W) 00:02:54 145.870
JAS-2 25 Sep 00:05:28 00:10:23 18° 86° (E) 00:15:10 435.910
ISS 25 Sep 00:09:26 00:12:09 24° 338° (NNW) 00:14:53 145.825
RS-15 25 Sep 00:11:28 00:22:00 35° 327° (NNW) 00:32:58 29.354- 29.394
QB50P2 25 Sep 00:14:21 00:16:49 15° 92° (E) 00:19:16 145.880/145.840
POLYITAN 1 25 Sep 00:16:36 00:19:04 15° 92° (E) 00:21:31 437.675
SO-50 25 Sep 00:17:25 00:19:44 14° 37° (NE) 00:22:02 436.795
AISAT 25 Sep 00:21:42 00:26:01 50° 72° (ENE) 00:30:20 437.250
UNISAT 6 25 Sep 00:35:31 00:39:38 42° 288° (WNW) 00:43:49 437.425
SPROUT 25 Sep 00:40:57 00:44:56 39° 71° (ENE) 00:48:55 437.525
AUBIESAT-1 25 Sep 00:47:19 00:51:32 88° 252° (WSW) 00:55:27 437.475
UKube-1 25 Sep 00:47:47 00:51:53 44° 71° (ENE) 00:56:01 .
AO-85 25 Sep 00:48:05 00:51:14 16° 319° (NW) 00:54:15 145.980
ESTCUBE 1 25 Sep 00:51:27 00:55:43 41° 262° (W) 01:00:02 437.505/2401.250
50 SAT 25 Sep 00:55:25 00:59:02 70° 259° (WSW) 01:02:40 437.505
QB50P1 25 Sep 00:56:44 01:00:45 42° 99° (E) 01:04:44 145.935-145.965
DUCHIFAT 1 25 Sep 00:58:37 01:02:32 38° 98° (E) 01:06:26 145.980
VELOX 1 25 Sep 01:05:36 01:09:59 57° 259° (W) 01:14:24 145.980
DX 1 25 Sep 01:09:18 01:13:41 81° 257° (WSW) 01:18:06 434.975-435.025
POPSAT HIP 1 25 Sep 01:09:49 01:13:58 59° 101° (E) 01:18:07 437.405
ANTELSAT 25 Sep 01:11:56 01:15:00 19° 294° (WNW) 01:18:06 437.575/2403.000
BUGSAT 1 25 Sep 01:16:01 01:19:15 23° 95° (E) 01:22:30 437.445
CUBEBUG 1 25 Sep 01:19:36 01:23:32 31° 263° (W) 01:27:31 437.445
M-CUBED/EXP-1 PRIME 25 Sep 01:22:09 01:25:52 28° 257° (WSW) 01:29:24 437.505
NANOSAT C BR1 25 Sep 01:28:36 01:32:49 87° 284° (WNW) 01:37:00 145.865
TIGRISAT 25 Sep 01:34:38 01:36:21 12° 297° (WNW) 01:38:06 435.000
ISS 25 Sep 01:47:50 01:49:32 13° 358° (N) 01:51:13 145.825
JAS-2 25 Sep 01:48:21 01:56:19 88° 104° (ESE) 02:03:57 435.910
QB50P2 25 Sep 01:48:50 01:52:50 44° 288° (WNW) 01:56:51 145.880/145.840
POLYITAN 1 25 Sep 01:51:04 01:55:05 44° 288° (WNW) 01:59:06 437.675
BEESAT 3 25 Sep 01:54:22 01:57:00 17° 111° (ESE) 01:59:38 437.485
SO-50 25 Sep 01:56:22 02:00:58 83° 55° (NE) 02:05:26 436.795
AISAT 25 Sep 02:00:09 02:02:45 15° 268° (W) 02:05:21 437.250
TISAT 1 25 Sep 02:13:37 02:17:49 88° 78° (ENE) 02:22:01 437.305
SPROUT 25 Sep 02:18:10 02:21:01 17° 267° (W) 02:23:53 437.525
UKube-1 25 Sep 02:25:25 02:28:07 16° 267° (W) 02:30:51 .
ITUPSAT 1 25 Sep 02:28:02 02:31:54 25° 66° (ENE) 02:35:47 437.325
RS-15 25 Sep 02:30:41 02:39:44 23° 2° (N) 02:48:53 29.354- 29.394
QB50P1 25 Sep 02:33:29 02:36:11 17° 295° (WNW) 02:38:53 145.935-145.965
DUCHIFAT 1 25 Sep 02:35:05 02:37:56 18° 294° (WNW) 02:40:47 145.980
BEESAT 2 25 Sep 02:41:49 02:45:13 28° 114° (ESE) 02:48:39 435.950
SWISSCUBE 25 Sep 02:42:24 02:46:48 39° 70° (ENE) 02:51:13 437.505
POPSAT HIP 1 25 Sep 02:47:26 02:49:14 13° 297° (WNW) 02:51:04 437.405
BUGSAT 1 25 Sep 02:51:14 02:54:35 26° 291° (WNW) 02:57:55 437.445
Cosmos 2491 25 Sep 02:55:02 03:03:41 53° 76° (ENE) 03:12:13 435.465 / 435.565
BEESAT 25 Sep 02:55:36 03:00:09 47° 71° (ENE) 03:04:43 436.000
Oscar 19 25 Sep 03:09:16 03:14:26 74° 103° (ESE) 03:19:34 437.125/150
MOZHAYETS 4 25 Sep 03:17:27 03:19:36 13° 62° (ENE) 03:21:46
ISS 25 Sep 03:24:26 03:26:59 20° 19° (NNE) 03:29:30 145.825
BEESAT 3 25 Sep 03:30:39 03:34:20 39° 308° (NW) 03:38:04 437.485
JAS-2 25 Sep 03:34:45 03:40:18 22° 303° (WNW) 03:45:47 435.910
Gurwin Techsat 1B 25 Sep 03:39:50 03:45:09 68° 102° (ESE) 03:50:26 435.225
SO-50 25 Sep 03:40:17 03:40:41 10° 254° (WSW) 03:41:04 436.795
ITAMSAT 1 25 Sep 03:55:29 03:59:49 26° 95° (E) 04:04:09 435.822/435.867
YUBILEINY 25 Sep 03:55:34 04:03:59 53° 90° (E) 04:12:23 435.215
ITUPSAT 1 25 Sep 04:05:13 04:09:33 35° 263° (W) 04:13:55 437.325
KKS-1 25 Sep 04:05:27 04:09:11 27° 68° (ENE) 04:12:56 437.445
BEESAT 2 25 Sep 04:19:38 04:23:00 26° 312° (NW) 04:26:24 435.950
SWISSCUBE 25 Sep 04:21:03 04:24:42 22° 266° (W) 04:28:23 437.505
CUBESAT XI-V 25 Sep 04:29:56 04:30:21 10° 60° (ENE) 04:30:48 437.345
BEESAT 25 Sep 04:34:58 04:38:10 18° 267° (W) 04:41:24 436.000
AIST 2 25 Sep 04:36:16 04:38:57 17° 110° (ESE) 04:41:40 435.215
RS-15 25 Sep 04:45:55 04:57:14 39° 36° (NE) 05:08:23 29.354- 29.394
STARS 25 Sep 04:47:59 04:52:00 36° 70° (ENE) 04:56:02 437.465
Oscar 19 25 Sep 04:50:21 04:53:07 15° 300° (WNW) 04:55:51 437.125/150
MOZHAYETS 4 25 Sep 04:51:40 04:56:12 66° 259° (W) 05:00:46
Cosmos 2491 25 Sep 04:52:29 05:00:06 34° 276° (W) 05:07:41 435.465 / 435.565
Cosmos 2504 25 Sep 04:59:41 05:06:49 49° 91° (E) 05:13:41 435.465 / 435.565
ISS 25 Sep 05:00:31 05:03:49 86° 217° (SW) 05:07:07 145.825
AO-7 25 Sep 05:11:08 05:19:19 58° 103° (ESE) 05:27:25 29.400- 29.500
Gurwin Techsat 1B 25 Sep 05:21:16 05:24:31 17° 299° (WNW) 05:27:47 435.225
PCSat 25 Sep 05:33:59 05:38:54 37° 111° (ESE) 05:43:51 145.827
ITAMSAT 1 25 Sep 05:34:33 05:39:22 38° 291° (WNW) 05:44:10 435.822/435.867
KKS-1 25 Sep 05:41:49 05:45:39 28° 264° (W) 05:49:30 437.445
YUBILEINY 25 Sep 05:53:17 06:01:04 34° 290° (WNW) 06:08:53 435.215
AO-85 25 Sep 05:59:27 06:00:11 10° 35° (NE) 06:00:55 145.980
CUBESAT XI-V 25 Sep 06:02:16 06:06:57 88° 79° (E) 06:11:42 437.345
DANDE 25 Sep 06:06:19 06:08:45 11° 54° (NE) 06:11:12 436.750
AIST 2 25 Sep 06:13:10 06:17:05 44° 307° (NW) 06:21:04 435.215
AIST 1 25 Sep 06:18:29 06:22:39 44° 93° (E) 06:26:50
STARS 25 Sep 06:25:12 06:28:27 20° 266° (W) 06:31:42 437.465
CUSAT 1 25 Sep 06:46:50 06:54:15 42° 70° (ENE) 07:00:45 437.405
HORYU 2 25 Sep 06:52:26 06:56:54 76° 103° (ESE) 07:01:20 437.375
Cosmos 2504 25 Sep 06:54:05 07:00:24 29° 289° (WNW) 07:06:35 435.465 / 435.565
RS-15 25 Sep 06:58:42 07:11:06 80° 241° (WSW) 07:23:09 29.354- 29.394
AO-7 25 Sep 07:04:31 07:11:40 34° 302° (WNW) 07:18:48 29.400- 29.500
NOAA 15 25 Sep 07:04:57 07:09:24 27° 95° (E) 07:13:48 137.62
Cubesat XI-IV 25 Sep 07:09:31 07:13:47 24° 94° (E) 07:18:03 437.490
CUTE-I 25 Sep 07:10:40 07:15:02 25° 94° (E) 07:19:21 437.470
PCSat 25 Sep 07:17:26 07:22:18 33° 309° (NW) 07:27:12 145.827
BRITE-PL 25 Sep 07:17:28 07:22:27 78° 102° (ESE) 07:26:59 437.365/2234.400
GOMX 1 25 Sep 07:23:40 07:27:47 35° 96° (E) 07:31:41 467.674
NOAA 18 25 Sep 07:24:27 07:29:00 26° 95° (E) 07:33:31 137.9125
STRAND 1 25 Sep 07:24:46 07:29:18 34° 68° (ENE) 07:33:52 437.568
AO-85 25 Sep 07:37:20 07:41:30 71° 56° (NE) 07:45:24 145.980
DANDE 25 Sep 07:45:21 07:53:28 52° 74° (ENE) 08:01:18 436.750
LilacSat-2 25 Sep 07:47:37 07:51:25 60° 100° (E) 07:55:13 437.200
O/OREOS (USA 219) 25 Sep 07:50:29 07:53:21 17° 100° (E) 07:56:14 437.305
AIST 1 25 Sep 07:57:45 08:00:28 16° 289° (WNW) 08:03:13
DOVE 4 25 Sep 08:01:14 08:05:08 35° 97° (E) 08:08:57 437.250
GONETS M04 25 Sep 08:21:17 08:26:28 17° 76° (ENE) 08:31:38
Cosmos 2499 25 Sep 08:26:33 08:27:38 10° 76° (ENE) 08:28:43 435.465 / 435.565
CUSAT 1 25 Sep 08:29:00 08:36:13 41° 272° (W) 08:42:30 437.405
HORYU 2 25 Sep 08:31:25 08:32:49 11° 299° (WNW) 08:34:14 437.375
NOAA 15 25 Sep 08:44:21 08:49:14 39° 292° (WNW) 08:54:06 137.62
Cubesat XI-IV 25 Sep 08:48:58 08:54:00 43° 291° (WNW) 08:59:03 437.490
CUTE-I 25 Sep 08:50:11 08:55:12 42° 291° (WNW) 09:00:12 437.470
PRISM 25 Sep 08:52:50 08:56:06 23° 67° (ENE) 08:59:24 437.425
COMPASS 1 25 Sep 08:56:32 08:58:24 13° 90° (E) 09:00:14 437.405
BRITE-PL 25 Sep 08:58:08 09:00:07 12° 301° (WNW) 09:02:02 437.365/2234.400
GOMX 1 25 Sep 09:02:17 09:05:38 21° 295° (WNW) 09:08:51 467.674
STRAND 1 25 Sep 09:04:06 09:08:28 29° 264° (W) 09:12:52 437.568
NOAA 18 25 Sep 09:04:40 09:09:46 41° 292° (WNW) 09:14:51 137.9125
CUTE 1.7 + AOD 2 25 Sep 09:10:02 09:14:04 38° 98° (E) 09:18:05 437.475
CANX-2 25 Sep 09:10:32 09:14:42 45° 99° (E) 09:18:50 2200.000
RS-15 25 Sep 09:13:49 09:21:30 20° 263° (W) 09:29:06 29.354- 29.394
SEEDS 25 Sep 09:17:28 09:21:19 32° 97° (E) 09:25:08 437.485
LilacSat-2 25 Sep 09:24:39 09:25:12 10° 296° (WNW) 09:25:45 437.200
O/OREOS (USA 219) 25 Sep 09:27:56 09:32:20 47° 296° (WNW) 09:36:47 437.305
CUBEBUG 2 25 Sep 09:28:07 09:31:29 22° 95° (E) 09:34:54 437.445
DANDE 25 Sep 09:28:33 09:35:59 37° 272° (W) 09:43:10 436.750
HO-68 25 Sep 09:29:21 09:36:27 62° 103° (ESE) 09:43:30 435.675
CINEMA 3 25 Sep 09:35:49 09:39:59 77° 283° (WNW) 09:44:11 145.822/145.860
DOVE 4 25 Sep 09:39:39 09:42:36 19° 294° (WNW) 09:45:29 437.250
AAUSAT CUBESAT 2 25 Sep 09:49:04 09:53:01 38° 97° (E) 09:56:56 437.432
FUNcube-1 25 Sep 09:49:43 09:52:15 15° 92° (E) 09:54:48 145.935
UWE-3 25 Sep 09:52:35 09:56:17 27° 96° (E) 10:00:02 435.000/436.395/437.385
UNISAT 6 25 Sep 09:59:23 10:01:55 16° 65° (ENE) 10:04:26 437.425
BEESAT 3 25 Sep 10:11:14 10:13:18 14° 41° (NE) 10:15:23 437.485
Cosmos 2499 25 Sep 10:12:13 10:19:25 76° 95° (E) 10:26:28 435.465 / 435.565
GONETS M04 25 Sep 10:13:04 10:21:54 88° 97° (E) 10:30:50
PRISM 25 Sep 10:27:35 10:31:15 30° 263° (W) 10:34:56 437.425
ZACube-1 25 Sep 10:28:42 10:32:49 43° 99° (E) 10:37:00 437.345
COMPASS 1 25 Sep 10:30:08 10:34:15 53° 286° (WNW) 10:38:22 437.405
Oscar 11 25 Sep 10:32:42 10:36:55 46° 99° (E) 10:41:06 145.826/435.025
ANTELSAT 25 Sep 10:33:21 10:37:13 34° 71° (ENE) 10:41:05 437.575/2403.000
CUTE 1.7 + AOD 2 25 Sep 10:46:35 10:49:37 19° 294° (WNW) 10:52:37 437.475
CANX-2 25 Sep 10:47:29 10:50:10 16° 295° (WNW) 10:52:53 2200.000
SEEDS 25 Sep 10:53:33 10:56:49 22° 293° (WNW) 11:00:05 437.485
TIGRISAT 25 Sep 10:54:24 10:58:35 56° 73° (ENE) 11:02:45 435.000
BEESAT 2 25 Sep 10:59:43 11:02:45 20° 46° (NE) 11:05:45 435.950
CUBEBUG 2 25 Sep 11:04:23 11:08:07 31° 290° (WNW) 11:11:55 437.445
QB50P2 25 Sep 11:08:02 11:09:44 12° 63° (ENE) 11:11:25 145.880/145.840
POLYITAN 1 25 Sep 11:10:17 11:11:58 12° 63° (ENE) 11:13:40 437.675
HUMSAT D 25 Sep 11:16:11 11:19:52 28° 96° (E) 11:23:33 437.325/437.525
HO-68 25 Sep 11:17:55 11:23:40 27° 301° (WNW) 11:29:24 435.675
FUNcube-1 25 Sep 11:24:36 11:28:42 47° 287° (WNW) 11:32:54 145.935
AAUSAT CUBESAT 2 25 Sep 11:25:20 11:28:11 18° 294° (WNW) 11:31:03 437.432
UWE-3 25 Sep 11:29:07 11:32:39 26° 291° (WNW) 11:36:15 435.000/436.395/437.385
UNISAT 6 25 Sep 11:34:07 11:38:15 47° 261° (W) 11:42:23 437.425
DELFI C3 25 Sep 11:35:05 11:39:07 83° 283° (WNW) 11:43:07 145.870
BEESAT 3 25 Sep 11:47:28 11:51:27 72° 239° (WSW) 11:55:23 437.485
QB50P1 25 Sep 11:49:07 11:52:50 31° 70° (ENE) 11:56:33 145.935-145.965
DUCHIFAT 1 25 Sep 11:50:30 11:54:04 28° 69° (ENE) 11:57:40 145.980
JAS-2 25 Sep 12:00:13 12:06:05 40° 65° (ENE) 12:12:38 435.910
POPSAT HIP 1 25 Sep 12:02:02 12:06:01 42° 72° (ENE) 12:09:59 437.405
ZACube-1 25 Sep 12:05:59 12:08:47 17° 294° (WNW) 12:11:37 437.345
BUGSAT 1 25 Sep 12:06:12 12:08:57 18° 66° (ENE) 12:11:42 437.445
PHONESAT 2.4 25 Sep 12:07:03 12:08:11 12° 149° (SSE) 12:09:21 2401.200-2431.200
Cosmos 2499 25 Sep 12:08:35 12:13:18 18° 295° (WNW) 12:18:00 435.465 / 435.565
Oscar 11 25 Sep 12:09:56 12:12:40 17° 295° (WNW) 12:15:23 145.826/435.025
ANTELSAT 25 Sep 12:10:54 12:14:02 20° 266° (W) 12:17:09 437.575/2403.000
GONETS M04 25 Sep 12:13:51 12:19:57 20° 298° (WNW) 12:26:08
NANOSAT C BR1 25 Sep 12:20:15 12:24:25 67° 74° (ENE) 12:28:35 145.865
TIGRISAT 25 Sep 12:33:56 12:35:37 12° 269° (W) 12:37:19 435.000
BEESAT 2 25 Sep 12:36:56 12:40:44 42° 243° (WSW) 12:44:31 435.950
QB50P2 25 Sep 12:40:50 12:45:00 62° 259° (W) 12:49:11 145.880/145.840
POLYITAN 1 25 Sep 12:43:06 12:47:15 61° 259° (W) 12:51:26 437.675
ESTCUBE 1 25 Sep 12:43:46 12:48:03 40° 98° (E) 12:52:18 437.505/2401.250
Oscar 19 25 Sep 12:49:46 12:52:26 14° 60° (ENE) 12:55:07 437.125/150
HUMSAT D 25 Sep 12:51:55 12:55:21 25° 291° (WNW) 12:58:49 437.325/437.525
VELOX 1 25 Sep 12:56:07 12:59:49 26° 96° (E) 13:03:28 145.980
AIST 2 25 Sep 12:57:00 12:59:29 15° 42° (NE) 13:01:57 435.215
DX 1 25 Sep 12:58:39 13:01:30 17° 93° (E) 13:04:20 434.975-435.025
M-CUBED/EXP-1 PRIME 25 Sep 13:02:21 13:03:48 12° 98° (E) 13:05:14 437.505
CUBEBUG 1 25 Sep 13:07:43 13:11:54 45° 99° (E) 13:16:02 437.445
Gurwin Techsat 1B 25 Sep 13:24:05 13:26:54 15° 60° (ENE) 13:29:42 435.225
QB50P1 25 Sep 13:25:24 13:28:38 21° 266° (W) 13:31:52 145.935-145.965
DUCHIFAT 1 25 Sep 13:26:22 13:29:44 23° 265° (W) 13:33:08 145.980
POPSAT HIP 1 25 Sep 13:39:26 13:41:59 16° 268° (W) 13:44:33 437.405
BUGSAT 1 25 Sep 13:40:11 13:44:03 38° 262° (W) 13:47:53 437.445
PHONESAT 2.4 25 Sep 13:41:03 13:43:53 44° 163° (SSE) 13:46:43 2401.200-2431.200
JAS-2 25 Sep 13:45:21 13:51:07 37° 266° (W) 13:57:35 435.910
AISAT 25 Sep 13:48:02 13:52:27 80° 286° (WNW) 13:56:49 437.250
50 SAT 25 Sep 13:56:34 14:00:11 56° 285° (WNW) 14:03:45 437.505
TISAT 1 25 Sep 13:59:12 14:01:12 13° 91° (E) 14:03:11 437.305
AUBIESAT-1 25 Sep 14:00:23 14:03:41 62° 106° (ESE) 14:06:57 437.475
SPROUT 25 Sep 14:02:15 14:06:31 79° 103° (ESE) 14:10:46 437.525
YUBILEINY 25 Sep 14:06:16 14:13:13 26° 66° (ENE) 14:20:06 435.215
UKube-1 25 Sep 14:10:30 14:14:50 83° 103° (ESE) 14:19:08 .
ESTCUBE 1 25 Sep 14:21:15 14:24:34 20° 295° (WNW) 14:27:53 437.505/2401.250
AO-7 25 Sep 14:21:24 14:26:32 18° 49° (NE) 14:31:40 29.400- 29.500
PCSat 25 Sep 14:21:38 14:26:28 31° 51° (NE) 14:31:15 145.827
Oscar 19 25 Sep 14:25:53 14:31:05 78° 257° (WSW) 14:36:19 437.125/150
VELOX 1 25 Sep 14:32:27 14:36:14 28° 292° (WNW) 14:39:59 145.980
DX 1 25 Sep 14:33:46 14:37:52 42° 289° (WNW) 14:41:56 434.975-435.025
AIST 2 25 Sep 14:34:14 14:38:25 71° 241° (WSW) 14:42:36 435.215
M-CUBED/EXP-1 PRIME 25 Sep 14:35:33 14:38:30 31° 294° (WNW) 14:41:25 437.505
CUBEBUG 1 25 Sep 14:45:03 14:47:49 17° 296° (WNW) 14:50:33 437.445
Cosmos 2504 25 Sep 14:52:29 14:56:55 16° 64° (ENE) 15:01:28 435.465 / 435.565
BEESAT 25 Sep 14:57:49 14:59:36 12° 90° (E) 15:01:23 436.000
Gurwin Techsat 1B 25 Sep 15:00:51 15:06:10 78° 257° (WSW) 15:11:30 435.225
ITAMSAT 1 25 Sep 15:13:14 15:18:01 40° 69° (ENE) 15:22:50 435.822/435.867
PHONESAT 2.4 25 Sep 15:16:57 15:19:55 81° 180° (S) 15:22:53 2401.200-2431.200
TISAT 1 25 Sep 15:33:05 15:37:08 50° 287° (WNW) 15:41:08 437.305
Cosmos 2491 25 Sep 15:55:40 16:04:14 61° 91° (E) 16:12:52 435.465 / 435.565
YUBILEINY 25 Sep 16:02:09 16:10:47 70° 267° (W) 16:19:23 435.215
PCSat 25 Sep 16:04:54 16:09:55 39° 249° (WSW) 16:14:54 145.827
ITUPSAT 1 25 Sep 16:05:06 16:09:52 59° 101° (E) 16:14:36 437.325
AO-7 25 Sep 16:09:42 16:18:00 77° 69° (ENE) 16:26:18 29.400- 29.500
SO-50 25 Sep 16:10:38 16:14:43 28° 113° (ESE) 16:18:47 436.795
SWISSCUBE 25 Sep 16:19:45 16:24:34 87° 286° (WNW) 16:29:22 437.505
AIST 1 25 Sep 16:27:42 16:29:00 11° 68° (ENE) 16:30:17
BEESAT 25 Sep 16:33:05 16:37:53 71° 285° (WNW) 16:42:38 436.000
Cosmos 2504 25 Sep 16:43:50 16:51:15 89° 255° (WSW) 16:59:08 435.465 / 435.565
MOZHAYETS 4 25 Sep 16:46:58 16:50:59 29° 96° (E) 16:55:00
BRITE-PL 25 Sep 16:51:59 16:54:34 13° 60° (ENE) 16:57:08 437.365/2234.400
PHONESAT 2.4 25 Sep 16:53:06 16:55:58 44° 196° (SSW) 16:58:50 2401.200-2431.200
ITAMSAT 1 25 Sep 16:53:25 16:57:35 25° 265° (W) 17:01:49 435.822/435.867
KKS-1 25 Sep 17:31:59 17:36:19 53° 100° (E) 17:40:38 437.445
ITUPSAT 1 25 Sep 17:44:17 17:47:12 16° 298° (WNW) 17:50:08 437.325
HORYU 2 25 Sep 17:50:06 17:54:28 68° 74° (ENE) 17:58:52 437.375
SO-50 25 Sep 17:50:33 17:55:04 38° 310° (NW) 17:59:32 436.795
Cosmos 2491 25 Sep 17:54:10 18:01:36 30° 292° (WNW) 18:09:08 435.465 / 435.565
O/OREOS (USA 219) 25 Sep 17:58:51 18:03:01 33° 61° (ENE) 18:07:09 437.305
CUBESAT XI-V 25 Sep 17:59:36 18:03:16 22° 94° (E) 18:06:54 437.345
SWISSCUBE 25 Sep 18:00:48 18:01:35 10° 301° (WNW) 18:02:21 437.505
AIST 1 25 Sep 18:02:48 18:07:03 62° 266° (W) 18:11:14
YUBILEINY 25 Sep 18:03:00 18:05:50 12° 287° (WNW) 18:08:40 435.215
AO-7 25 Sep 18:05:18 18:11:29 23° 267° (W) 18:17:43 29.400- 29.500
STARS 25 Sep 18:13:05 18:17:28 72° 103° (ESE) 18:21:48 437.465
MOZHAYETS 4 25 Sep 18:24:07 18:28:05 28° 292° (WNW) 18:32:02
NOAA 15 25 Sep 18:24:41 18:29:39 43° 69° (ENE) 18:34:39 137.62
BRITE-PL 25 Sep 18:26:30 18:32:12 85° 76° (ENE) 18:37:52 437.365/2234.400
LilacSat-2 25 Sep 18:29:44 18:32:59 28° 71° (ENE) 18:36:15 437.200
GOMX 1 25 Sep 18:30:22 18:35:29 43° 71° (ENE) 18:40:25 467.674
PHONESAT 2.4 25 Sep 18:30:27 18:31:39 12° 211° (SSW) 18:32:52 2401.200-2431.200
Cubesat XI-IV 25 Sep 18:31:16 18:36:09 39° 69° (ENE) 18:41:05 437.490
CUTE-I 25 Sep 18:32:16 18:37:11 40° 69° (ENE) 18:42:08 437.470
Cosmos 2504 25 Sep 18:39:45 18:43:36 15° 281° (W) 18:47:32 435.465 / 435.565
NOAA 18 25 Sep 18:50:27 18:55:43 50° 70° (ENE) 19:00:59 137.9125
DOVE 4 25 Sep 19:05:42 19:10:27 41° 72° (ENE) 19:14:58 437.250
KKS-1 25 Sep 19:09:52 19:12:27 15° 297° (WNW) 19:15:00 437.445
RS-15 25 Sep 19:16:05 19:21:51 15° 95° (E) 19:27:44 29.354- 29.394
HORYU 2 25 Sep 19:30:30 19:31:28 11° 270° (W) 19:32:27 437.375
CUBESAT XI-V 25 Sep 19:36:25 19:40:44 37° 290° (WNW) 19:45:00 437.345
STRAND 1 25 Sep 19:37:44 19:38:59 11° 89° (E) 19:40:13 437.568
O/OREOS (USA 219) 25 Sep 19:38:31 19:42:16 25° 258° (WSW) 19:45:59 437.305
CUSAT 1 25 Sep 19:47:33 19:52:55 36° 87° (E) 19:59:26 437.405
STARS 25 Sep 19:51:46 19:53:13 11° 299° (WNW) 19:54:39 437.465
HO-68 25 Sep 19:57:43 20:04:27 46° 66° (ENE) 20:11:11 435.675
Cosmos 2499 25 Sep 20:02:42 20:08:46 26° 69° (ENE) 20:15:08 435.465 / 435.565
CUTE 1.7 + AOD 2 25 Sep 20:02:45 20:06:19 27° 69° (ENE) 20:09:55 437.475
CANX-2 25 Sep 20:03:15 20:07:00 32° 70° (ENE) 20:10:46 2200.000
LilacSat-2 25 Sep 20:04:38 20:07:19 18° 267° (W) 20:09:59 437.200
NOAA 15 25 Sep 20:05:20 20:09:34 24° 266° (W) 20:13:51 137.62
BRITE-PL 25 Sep 20:08:39 20:11:15 13° 272° (W) 20:13:51 437.365/2234.400
GOMX 1 25 Sep 20:09:16 20:13:38 24° 266° (W) 20:17:54 467.674
SEEDS 25 Sep 20:09:24 20:12:41 23° 68° (ENE) 20:16:00 437.485
Cubesat XI-IV 25 Sep 20:11:54 20:16:19 26° 265° (W) 20:20:45 437.490
CUTE-I 25 Sep 20:13:00 20:17:20 25° 265° (W) 20:21:42 437.470
GONETS M04 25 Sep 20:23:48 20:32:09 44° 74° (ENE) 20:40:23
CUBEBUG 2 25 Sep 20:26:49 20:29:45 19° 67° (ENE) 20:32:40 437.445
NOAA 18 25 Sep 20:32:31 20:36:37 21° 266° (W) 20:40:45 137.9125
CINEMA 3 25 Sep 20:36:53 20:41:27 87° 256° (WSW) 20:45:51 145.822/145.860
AAUSAT CUBESAT 2 25 Sep 20:39:21 20:42:48 26° 69° (ENE) 20:46:15 437.432
DOVE 4 25 Sep 20:44:15 20:48:13 23° 266° (W) 20:52:03 437.250
FUNcube-1 25 Sep 20:46:40 20:48:08 12° 63° (ENE) 20:49:35 145.935
UWE-3 25 Sep 20:50:04 20:53:17 22° 68° (ENE) 20:56:28 435.000/436.395/437.385
DANDE 25 Sep 20:53:48 20:58:20 44° 90° (E) 21:04:20 436.750
STRAND 1 25 Sep 21:13:36 21:18:47 85° 284° (WNW) 21:23:56 437.568
COMPASS 1 25 Sep 21:20:11 21:24:21 84° 261° (W) 21:28:34 437.405
RS-15 25 Sep 21:20:25 21:31:51 71° 116° (ESE) 21:43:56 29.354- 29.394
ZACube-1 25 Sep 21:24:40 21:28:21 32° 71° (ENE) 21:32:04 437.345
Oscar 11 25 Sep 21:27:19 21:31:13 35° 71° (ENE) 21:35:09 145.826/435.025
CUSAT 1 25 Sep 21:29:09 21:34:48 40° 290° (WNW) 21:41:41 437.405
CUTE 1.7 + AOD 2 25 Sep 21:38:37 21:42:07 25° 265° (W) 21:45:38 437.475
CANX-2 25 Sep 21:39:39 21:42:53 21° 266° (W) 21:46:10 2200.000
ISS 25 Sep 21:40:39 21:43:30 29° 135° (SE) 21:46:24 145.825
SEEDS 25 Sep 21:44:32 21:48:13 30° 264° (W) 21:51:58 437.485
HO-68 25 Sep 21:45:50 21:52:14 35° 263° (W) 21:58:42 435.675
AO-85 25 Sep 21:51:03 21:55:26 27° 113° (ESE) 21:59:38 145.980
Cosmos 2499 25 Sep 21:54:56 22:02:18 62° 267° (W) 22:10:13 435.465 / 435.565
CUBEBUG 2 25 Sep 22:02:14 22:06:08 36° 262° (W) 22:10:01 437.445
HUMSAT D 25 Sep 22:07:59 22:10:54 19° 67° (ENE) 22:13:50 437.325/437.525
PRISM 25 Sep 22:08:43 22:12:32 34° 98° (E) 22:16:17 437.425
AAUSAT CUBESAT 2 25 Sep 22:14:43 22:18:11 25° 265° (W) 22:21:42 437.432
FUNcube-1 25 Sep 22:19:46 22:23:51 61° 259° (W) 22:27:57 145.935
DELFI C3 25 Sep 22:20:23 22:24:16 53° 74° (ENE) 22:28:11 145.870
GONETS M04 25 Sep 22:20:50 22:28:51 41° 274° (W) 22:36:47
UWE-3 25 Sep 22:25:54 22:29:36 30° 264° (W) 22:33:16 435.000/436.395/437.385
DANDE 25 Sep 22:37:21 22:41:32 25° 297° (WNW) 22:46:43 436.750
TIGRISAT 25 Sep 22:47:44 22:49:18 12° 90° (E) 22:50:52 435.000
STRAND 1 25 Sep 22:55:34 22:57:08 11° 302° (WNW) 22:58:43 437.568
ZACube-1 25 Sep 23:01:41 23:04:43 20° 266° (W) 23:07:46 437.345
Oscar 11 25 Sep 23:04:17 23:07:26 20° 267° (W) 23:10:37 145.826/435.025
